Change the Weather History Date:

Friday, September 28, 2012

  Actual Average Record
Temperature  
Mean Temperature 76 °F 70 °F  
Max Temperature 88 °F 80 °F 95 °F (1933)
Min Temperature 63 °F 59 °F 43 °F (1943)
Degree Days  
Heating Degree Days 0 1  
Month to date heating degree days 1 6  
Since 1 July heating degree days 1 6  
Cooling Degree Days 11 5  
Month to date cooling degree days 261 259  
Year to date cooling degree days 2010 1899  
Growing Degree Days 25 (Base 50)    
Moisture  
Dew Point 63 °F    
Average Humidity 70    
Maximum Humidity 100    
Minimum Humidity 40    
Precipitation  
Precipitation 0.00 in 0.14 in 2.83 in (1970)
Month to date precipitation 1.33 4.11  
Year to date precipitation 33.06 35.54  
Sea Level Pressure  
Sea Level Pressure 30.04 in    
Wind  
Wind Speed 4 mph (SW)    
Max Wind Speed 9 mph    
Max Gust Speed 15 mph    
Visibility 10 miles    
Events      
T = Trace of Precipitation, MM = Missing Value Source: NWS Daily Summary

Daily Weather History Graph

Daily Weather History Graph

Search for Another Location

Airport or City:

Trip Planner

Search our weather history database for the weather conditions in past years. The results will help you decide how hot, cold, wet, or windy it might be!

Date:

Astronomy

Sep. 28, 2012 Rise Set
Actual Time 7:08 AM EDT 7:03 PM EDT
Civil Twilight 6:43 AM EDT 7:28 PM EDT
Nautical Twilight 6:13 AM EDT 7:57 PM EDT
Astronomical Twilight 5:44 AM EDT 8:27 PM EDT
Moon 6:03 PM EDT (9/28) 5:39 AM EDT (9/28)
Length of Visible Light 12h 45m
Length of Day
11h 54m
Waxing Gibbous, 98% of the Moon is Illuminated
Sep 28
Waxing Gibbous
Sep 29
Full
Oct 8
Last Quarter
Oct 15
New
Oct 21
First Quarter

Hourly Weather History & Observations

Time (EDT) Temp. Heat Index Dew Point Humidity Pressure Visibility Wind Dir Wind Speed Gust Speed Precip Events Conditions
12:53 AM 68.0 °F - 64.0 °F 87% 30.10 in 10.0 mi South 5.8 mph - N/A   Clear
1:53 AM 66.0 °F - 63.0 °F 90% 30.09 in 10.0 mi SW 4.6 mph - N/A   Clear
2:53 AM 64.9 °F - 63.0 °F 93% 30.09 in 10.0 mi SSW 4.6 mph - N/A   Clear
3:53 AM 66.0 °F - 63.0 °F 90% 30.08 in 10.0 mi WSW 5.8 mph - N/A   Clear
4:53 AM 66.0 °F - 63.0 °F 90% 30.07 in 10.0 mi WSW 5.8 mph - N/A   Clear
5:53 AM 64.9 °F - 63.0 °F 93% 30.07 in 10.0 mi SW 3.5 mph - N/A   Clear
6:53 AM 63.0 °F - 62.1 °F 97% 30.07 in 10.0 mi SW 4.6 mph - N/A   Clear
7:53 AM 64.0 °F - 63.0 °F 96% 30.08 in 6.0 mi SW 3.5 mph - N/A   Clear
8:53 AM 70.0 °F - 64.9 °F 84% 30.08 in 10.0 mi SW 3.5 mph - N/A   Clear
9:53 AM 75.0 °F - 66.0 °F 73% 30.08 in 10.0 mi WSW 4.6 mph - N/A   Clear
10:53 AM 79.0 °F - 66.9 °F 66% 30.08 in 10.0 mi Calm Calm - N/A   Clear
11:53 AM 82.9 °F 84.6 °F 64.9 °F 54% 30.07 in 10.0 mi Variable 3.5 mph - N/A   Clear
12:53 PM 84.9 °F 84.4 °F 59.0 °F 41% 30.04 in 10.0 mi SW 4.6 mph - N/A   Clear
1:53 PM 86.0 °F 86.1 °F 61.0 °F 43% 30.02 in 10.0 mi West 5.8 mph - N/A   Clear
2:53 PM 87.1 °F 87.0 °F 61.0 °F 41% 30.00 in 10.0 mi Calm Calm - N/A   Clear
3:53 PM 87.1 °F 86.7 °F 60.1 °F 40% 29.98 in 10.0 mi SW 4.6 mph - N/A   Scattered Clouds
4:53 PM 84.9 °F 84.4 °F 59.0 °F 41% 29.97 in 10.0 mi SW 4.6 mph - N/A   Clear
5:53 PM 82.9 °F 84.0 °F 63.0 °F 51% 29.97 in 10.0 mi SSW 6.9 mph - N/A   Clear
6:53 PM 80.1 °F 81.7 °F 64.0 °F 58% 29.98 in 10.0 mi SW 4.6 mph - N/A   Clear
7:53 PM 75.9 °F - 64.9 °F 69% 29.99 in 10.0 mi WSW 3.5 mph - N/A   Clear
8:53 PM 75.0 °F - 64.0 °F 69% 29.99 in 10.0 mi SW 3.5 mph - N/A   Clear
9:53 PM 71.1 °F - 64.0 °F 78% 30.00 in 10.0 mi North 4.6 mph - N/A   Clear
10:53 PM 71.1 °F - 64.0 °F 78% 30.01 in 10.0 mi Calm Calm - N/A   Clear
11:53 PM 70.0 °F - 64.0 °F 81% 30.00 in 10.0 mi Calm Calm - N/A   Clear